Location: Trondheim
(63.4170°N, 10.4170°E)
Time: 17:12:31
(UTC+01:00)

Iridium 82 - Visible Passes

Search period start: 22 January 2017 00:00
Search period end: 01 February 2017 00:00
Orbit: 776 x 779 km, 86.4° (Epoch: 21 January)

Date Brightness Start Highest point End Pass type
(mag) Time Alt. Az. Time Alt. Az. Time Alt. Az.
22 Jan 8.0 06:41:05 10° N 06:44:19 16° NE 06:47:33 10° E visible
22 Jan 6.5 08:21:18 10° N 08:26:24 49° ENE 08:31:28 10° SSE visible
23 Jan 8.2 06:08:02 10° NNE 06:10:10 12° NE 06:12:19 10° ENE visible
23 Jan 7.0 07:47:48 10° N 07:52:36 35° ENE 07:57:23 10° SE visible
24 Jan 7.5 07:14:22 10° N 07:18:44 26° ENE 07:23:04 10° ESE visible
24 Jan 8.3 22:14:29 10° N 22:14:29 10° N 22:14:32 10° N visible
24 Jan 8.5 23:54:57 10° N 23:54:57 10° N 23:55:03 10° N visible
25 Jan 7.9 06:41:00 10° N 06:44:44 19° NE 06:48:27 10° E visible
25 Jan 8.2 21:40:53 10° N 21:40:53 10° N 21:40:57 10° N visible
25 Jan 8.4 23:21:21 11° N 23:21:21 11° N 23:21:38 10° N visible
26 Jan 8.1 06:07:47 10° NNE 06:10:39 15° NE 06:13:30 10° E visible
26 Jan 6.7 07:47:52 10° N 07:52:52 43° ENE 07:57:50 10° SE visible
26 Jan 8.1 21:07:16 10° NNE 21:07:16 10° NNE 21:07:18 10° NNE visible
26 Jan 8.3 22:47:43 12° N 22:47:43 12° N 22:48:10 10° N visible
27 Jan 8.5 00:28:11 10° NNW 00:28:11 10° NNW 00:28:17 10° NNW visible
27 Jan 8.3 05:34:57 10° NNE 05:36:28 11° NE 05:37:58 10° NE visible
27 Jan 7.3 07:14:24 10° N 07:19:03 31° ENE 07:23:40 10° SE visible
27 Jan 8.2 22:14:06 13° N 22:14:06 13° N 22:14:38 10° N visible
27 Jan 8.4 23:54:33 12° N 23:54:33 12° N 23:55:03 10° N visible
28 Jan 7.7 06:40:59 10° N 06:45:07 23° ENE 06:49:14 10° ESE visible
28 Jan 8.0 21:40:26 14° N 21:40:26 14° N 21:41:05 10° N visible
28 Jan 8.3 23:20:53 13° N 23:20:53 13° N 23:21:40 10° N visible
29 Jan 8.1 06:07:40 10° N 06:11:06 17° NE 06:14:30 10° E visible
29 Jan 6.4 07:47:57 10° N 07:53:05 53° ENE 07:58:12 10° SSE visible
29 Jan 7.9 21:06:46 14° NNE 21:06:46 14° NNE 21:07:28 10° N visible
29 Jan 8.1 22:47:13 15° N 22:47:13 15° N 22:48:14 10° N visible
30 Jan 8.5 00:27:40 11° NNW 00:27:40 11° NNW 00:28:04 10° NNW visible
30 Jan 8.2 05:34:32 10° NNE 05:36:58 13° NE 05:39:23 10° ENE visible
30 Jan 7.0 07:14:27 10° N 07:19:20 37° ENE 07:24:11 10° SE visible
30 Jan 7.7 20:33:05 14° NNE 20:33:05 14° NNE 20:33:48 10° NNE visible
30 Jan 7.9 22:13:31 17° N 22:13:31 17° N 22:14:44 10° N visible
30 Jan 8.3 23:53:58 13° NNW 23:53:58 13° NNW 23:54:59 10° N visible
31 Jan 7.5 06:41:00 10° N 06:45:28 27° ENE 06:49:54 10° ESE visible
31 Jan 7.7 19:59:21 13° NNE 19:59:21 13° NNE 20:00:05 10° NNE visible
31 Jan 7.7 21:39:48 19° N 21:39:48 19° N 21:41:12 10° N visible
31 Jan 8.2 23:20:15 16° NNW 23:20:15 16° NNW 23:21:40 10° N visible
